Weather History for Mullan Pass, ID

Change the Weather History Date:

Saturday, February 11, 2012

  Actual Average (K3TH) Record (K3TH)
Temperature  
Mean Temperature 31 °F -  
Max Temperature 35 °F 36 °F 44 °F (1998)
Min Temperature 27 °F 25 °F 21 °F (1999)
Degree Days  
Heating Degree Days 34    
Moisture  
Dew Point 27 °F    
Average Humidity 88    
Maximum Humidity 93    
Minimum Humidity 81    
Precipitation  
Precipitation 0.01 in - - ()
Sea Level Pressure  
Sea Level Pressure 29.95 in    
Wind  
Wind Speed 5 mph (SSE)    
Max Wind Speed 10 mph    
Max Gust Speed -    
Averages and records for this station are not official NWS values.
T = Trace of Precipitation, MM = Missing Value Source: NWS Daily Summary

Daily Weather History Graph

Daily Weather History Graph

Search for Another Location

Airport:

Trip Planner

Search our weather history database for the weather conditions in past years. The results will help you decide how hot, cold, wet, or windy it might be!

Date:

Astronomy

Feb. 11, 2012 Rise Set
Actual Time 6:55 AM PST 4:59 PM PST
Civil Twilight 6:23 AM PST 5:31 PM PST
Nautical Twilight 5:46 AM PST 6:07 PM PST
Astronomical Twilight 5:11 AM PST 6:43 PM PST
Moon 10:19 PM PST (2/11) 8:16 AM PST (2/11)
Length of Visible Light 11h 08m
Length of Day
10h 04m
Waning Gibbous, 81% of the Moon is Illuminated
Feb 11
Waning Gibbous
Feb 14
Last Quarter
Feb 21
New
Feb 29
First Quarter
Mar 8
Full

Hourly Weather History & Observations

Time (PST) Temp. Windchill Dew Point Humidity Pressure Visibility Wind Dir Wind Speed Gust Speed Precip Events Conditions
12:34 AM 28.4 °F 22.2 °F 26.6 °F 93% 30.00 in 0.5 mi SE 5.8 mph - N/A Fog Light Freezing Fog
12:53 AM 28.9 °F 21.9 °F 26.1 °F 89% 29.93 in 0.5 mi SSE 6.9 mph - N/A Fog Light Freezing Fog
1:00 AM 28.4 °F 20.4 °F 26.6 °F 93% 30.00 in 0.2 mi SSE 8.1 mph - N/A Fog Light Freezing Fog
1:53 AM 28.9 °F 21.9 °F 26.1 °F 89% 29.93 in 0.2 mi Variable 6.9 mph - N/A Fog Light Freezing Fog
2:53 AM 28.9 °F 21.9 °F 25.0 °F 85% 29.91 in 0.2 mi SSE 6.9 mph - N/A Fog Light Freezing Fog
3:53 AM 28.0 °F 20.8 °F 25.0 °F 88% 29.91 in 0.2 mi SE 6.9 mph - N/A Fog Light Freezing Fog
4:53 AM 28.0 °F 18.6 °F 24.1 °F 85% 30.06 in 0.2 mi SE 10.4 mph - N/A Fog Light Freezing Fog
5:53 AM 27.0 °F 18.0 °F 24.1 °F 89% 30.06 in 0.2 mi SE 9.2 mph - N/A Fog Light Freezing Fog
6:53 AM 27.0 °F 18.0 °F 24.1 °F 89% 30.06 in 0.2 mi SE 9.2 mph - N/A Fog Light Freezing Fog
7:53 AM 27.0 °F 18.7 °F 24.1 °F 89% 30.06 in 0.2 mi SSE 8.1 mph - N/A Fog Light Freezing Fog
8:32 AM 28.4 °F 22.2 °F 24.8 °F 86% 29.98 in 0.2 mi SSE 5.8 mph - N/A Fog Light Freezing Fog
8:53 AM 28.0 °F 22.8 °F 24.1 °F 85% 30.06 in 0.2 mi SSE 4.6 mph - N/A Fog Light Freezing Fog
9:04 AM 28.4 °F 21.2 °F 24.8 °F 86% 29.98 in 0.2 mi SSE 6.9 mph - 0.00 in Fog , Snow Light Snow
9:26 AM 28.4 °F 22.2 °F 24.8 °F 86% 29.98 in 0.2 mi SSE 5.8 mph - 0.00 in Fog , Snow Light Snow
9:53 AM 28.0 °F 22.8 °F 25.0 °F 88% 30.06 in 0.2 mi SSE 4.6 mph - 0.00 in Fog , Snow Light Snow
10:26 AM 28.4 °F 23.3 °F 24.8 °F 86% 29.98 in 0.2 mi SSE 4.6 mph - 0.00 in Fog Light Freezing Fog
10:41 AM 30.2 °F 25.4 °F 26.6 °F 86% 29.98 in 0.2 mi South 4.6 mph - 0.00 in Fog Light Freezing Fog
10:53 AM 30.9 °F 25.2 °F 26.1 °F 82% 29.91 in 0.2 mi South 5.8 mph - 0.00 in   Haze
11:53 AM 30.0 °F 25.2 °F 26.1 °F 85% 29.90 in 0.2 mi SSE 4.6 mph - 0.00 in Fog Light Freezing Fog
12:49 PM 30.2 °F 26.7 °F 26.6 °F 86% 29.96 in 0.2 mi South 3.5 mph - 0.00 in Fog Light Freezing Fog
12:53 PM 30.9 °F 27.5 °F 27.0 °F 85% 29.89 in 0.2 mi South 3.5 mph - 0.00 in Fog Light Freezing Fog
1:19 PM 33.8 °F - 28.4 °F 81% 29.95 in 1.0 mi Calm Calm - N/A   Overcast
1:21 PM 33.8 °F - 30.2 °F 87% 29.95 in 2.0 mi Calm Calm - N/A   Overcast
1:33 PM 33.8 °F - 30.2 °F 87% 29.95 in 0.8 mi Calm Calm - N/A   Mist
1:49 PM 35.6 °F - 32.0 °F 87% 29.94 in 0.2 mi Calm Calm - N/A Fog Fog
1:53 PM 35.1 °F - 32.0 °F 89% 29.87 in 0.2 mi Calm Calm - 0.00 in Fog , Snow Light Snow
2:53 PM 34.0 °F - 30.9 °F 89% 29.87 in 0.2 mi Calm Calm - 0.00 in Fog Fog
3:38 PM 33.8 °F - 30.2 °F 87% 29.94 in 0.2 mi Calm Calm - N/A Fog Fog
3:53 PM 33.1 °F - 30.9 °F 92% 29.87 in 0.2 mi Calm Calm - N/A Fog Fog
4:53 PM 30.9 °F 27.5 °F 28.9 °F 92% 29.88 in 0.2 mi NW 3.5 mph - 0.00 in Fog Light Freezing Fog
5:09 PM 30.2 °F 26.7 °F 28.4 °F 93% 29.94 in 0.5 mi NW 3.5 mph - N/A Fog Light Freezing Fog
5:53 PM 30.9 °F - 28.0 °F 89% 30.02 in 0.5 mi Calm Calm - N/A Fog Light Freezing Fog
6:01 PM 30.2 °F - 28.4 °F 93% 29.94 in 0.2 mi Calm Calm - N/A Fog Light Freezing Fog
6:06 PM 30.2 °F - 28.4 °F 93% 29.94 in 0.5 mi Calm Calm - N/A Fog Light Freezing Fog
6:22 PM 30.2 °F - 28.4 °F 93% 29.94 in 0.2 mi Calm Calm - N/A Fog Light Freezing Fog
6:53 PM 30.9 °F - 27.0 °F 85% 30.02 in 0.2 mi Calm Calm - 0.01 in Fog , Snow Light Snow
7:06 PM 30.2 °F - 26.6 °F 86% 29.94 in 0.2 mi Calm Calm - 0.00 in Fog , Snow Light Snow
7:53 PM 30.0 °F 26.5 °F 26.1 °F 85% 30.01 in 0.2 mi NW 3.5 mph - 0.00 in Fog , Snow Light Snow
8:15 PM 30.2 °F 26.7 °F 26.6 °F 86% 29.93 in 0.5 mi NNW 3.5 mph - 0.00 in Fog , Snow Light Snow
8:53 PM 28.9 °F 23.9 °F 26.1 °F 89% 30.01 in 0.8 mi NNW 4.6 mph - 0.01 in Snow Light Snow
9:37 PM 28.4 °F 24.6 °F 26.6 °F 93% 29.92 in 0.2 mi Variable 3.5 mph - 0.00 in Fog , Snow Light Snow
9:46 PM 28.4 °F 23.3 °F 24.8 °F 86% 29.92 in 0.5 mi NNW 4.6 mph - 0.00 in Fog , Snow Light Snow
9:53 PM 28.9 °F 23.9 °F 25.0 °F 85% 30.00 in 0.5 mi NNW 4.6 mph - 0.00 in Fog , Snow Light Snow
10:53 PM 28.0 °F 21.7 °F 25.0 °F 88% 29.85 in 0.5 mi NW 5.8 mph - 0.02 in Fog , Snow Light Snow